Location: Branche des Alpilles
(43.6087°N, 4.6976°E)
Time: 20:14:04
(UTC+00:00)

Tiangong - Pass Details

Date: 28 September 2021
Orbit: 382 x 384 km, 41.5° (Epoch: 20 October)

Event Time Altitude Azimuth Distance (km) Brightness Sun altitude
Exits shadow 03:35:21 17° 141° (SE) 1,043 3.4 -22.2°
Drops below altitude 10° 03:37:06 10° 108° (ESE) 1,395 4.6 -21.9°
Sets 03:39:35 0° 89° (E) 2,249 6.3 -21.5°
